| time (UTC) | temp C | wind direction | speed KPH | gust KPH | rain 1hr cm | rain 24hr cm | rain mn cm | humidity % | barometer mb |
| 20260503190018 | 17 | 96 | 4.8 | 17.7 | 0.00 | 0.00 | 0.00 | 39 | 1017.8 |
| 20260503185507 | 17 | 96 | 6.4 | 16.1 | 0.00 | 0.00 | 0.00 | 39 | 1018.0 |
| 20260503184508 | 17 | 96 | 9.7 | 14.5 | 0.00 | 0.00 | 0.00 | 40 | 1018.3 |
| 20260503184007 | 17 | 96 | 3.2 | 19.3 | 0.00 | 0.00 | 0.00 | 41 | 1018.3 |
| 20260503183508 | 17 | 96 | 11.3 | 19.3 | 0.00 | 0.00 | 0.00 | 41 | 1018.3 |
| 20260503183007 | 17 | 96 | 1.6 | 16.1 | 0.00 | 0.00 | 0.00 | 41 | 1018.4 |
| 20260503182509 | 17 | 96 | 8.0 | 14.5 | 0.00 | 0.00 | 0.00 | 41 | 1018.6 |
| 20260503182011 | 17 | 96 | 3.2 | 11.3 | 0.00 | 0.00 | 0.00 | 41 | 1018.7 |
| 20260503181506 | 17 | 96 | 6.4 | 12.9 | 0.00 | 0.00 | 0.00 | 40 | 1018.8 |
| 20260503181007 | 17 | 96 | 6.4 | 16.1 | 0.00 | 0.00 | 0.00 | 41 | 1018.9 |
| 20260503180505 | 16 | 96 | 3.2 | 17.7 | 0.00 | 0.00 | 0.00 | 41 | 1018.9 |
| 20260503180004 | 16 | 96 | 9.7 | 17.7 | 0.00 | 0.00 | 0.00 | 42 | 1018.9 |
| 20260503175502 | 16 | 96 | 4.8 | 16.1 | 0.00 | 0.00 | 0.00 | 42 | 1018.9 |
| 20260503174502 | 16 | 96 | 1.6 | 16.1 | 0.00 | 0.00 | 0.00 | 41 | 1019.1 |
| 20260503174002 | 15 | 96 | 3.2 | 22.5 | 0.00 | 0.00 | 0.00 | 42 | 1019.1 |
| 20260503173504 | 16 | 96 | 8.0 | 20.9 | 0.00 | 0.00 | 0.00 | 41 | 1019.2 |
| 20260503173003 | 15 | 96 | 9.7 | 17.7 | 0.00 | 0.00 | 0.00 | 41 | 1019.2 |
| 20260503172601 | 16 | 96 | 9.7 | 16.1 | 0.00 | 0.00 | 0.00 | 42 | 1019.2 |
| 20260503172500 | 16 | 96 | 8.0 | 16.1 | 0.00 | 0.00 | 0.00 | 41 | 1019.2 |
| 20260503172100 | 15 | 96 | 1.6 | 11.3 | 0.00 | 0.00 | 0.00 | 41 | 1019.3 |
| 20260503171603 | 15 | 96 | 0.0 | 14.5 | 0.00 | 0.00 | 0.00 | 42 | 1019.5 |
| 20260503171059 | 15 | 96 | 9.7 | 17.7 | 0.00 | 0.00 | 0.00 | 42 | 1019.6 |
| 20260503170559 | 15 | 96 | 12.9 | 20.9 | 0.00 | 0.00 | 0.00 | 42 | 1019.6 |
| 20260503150547 | 12 | 96 | 9.7 | 20.9 | 0.00 | 0.00 | 0.00 | 45 | 1020.8 |
| 20260503131035 | 9 | 96 | 3.2 | 11.3 | 0.00 | 0.00 | 0.00 | 61 | 1020.6 |
| 20260503130535 | 9 | 96 | 1.6 | 9.7 | 0.00 | 0.00 | 0.00 | 63 | 1020.6 |
| 20260503110530 | 5 | 96 | 0.0 | 4.8 | 0.00 | 0.00 | 0.00 | 79 | 1019.7 |
| 20260503090509 | 7 | 96 | 11.3 | 20.9 | 0.00 | 0.00 | 0.00 | 68 | 1018.1 |
| 20260503081502 | 6 | 96 | 0.0 | 0.0 | 0.00 | 0.00 | 0.00 | 73 | 1017.6 |
| 20260503081001 | 6 | 96 | 0.0 | 0.0 | 0.00 | 0.00 | 0.00 | 73 | 1017.6 |
| 20260503080601 | 6 | 96 | 0.0 | 0.0 | 0.00 | 0.00 | 0.00 | 73 | 1017.5 |
| 20260503072553 | 8 | 96 | 1.6 | 14.5 | 0.00 | 0.00 | 0.00 | 61 | 1017.1 |
| 20260503072053 | 8 | 96 | 1.6 | 17.7 | 0.00 | 0.00 | 0.00 | 60 | 1017.0 |
| 20260503071552 | 8 | 96 | 9.7 | 17.7 | 0.00 | 0.00 | 0.00 | 60 | 1016.9 |
| 20260503071050 | 8 | 96 | 8.0 | 25.7 | 0.00 | 0.00 | 0.00 | 60 | 1016.9 |
| 20260503070549 | 9 | 96 | 14.5 | 25.7 | 0.00 | 0.00 | 0.00 | 59 | 1016.8 |
| 20260503055041 | 10 | 95 | 8.0 | 17.7 | 0.00 | 0.00 | 0.00 | 56 | 1016.7 |
| 20260503054542 | 10 | 96 | 8.0 | 17.7 | 0.00 | 0.00 | 0.00 | 56 | 1016.7 |
| 20260503054041 | 10 | 95 | 11.3 | 20.9 | 0.00 | 0.00 | 0.00 | 57 | 1016.7 |
| 20260503053539 | 9 | 96 | 6.4 | 20.9 | 0.00 | 0.00 | 0.00 | 58 | 1016.8 |
| 20260503053038 | 9 | 95 | 3.2 | 12.9 | 0.00 | 0.00 | 0.00 | 58 | 1016.8 |
| 20260503052535 | 9 | 95 | 1.6 | 22.5 | 0.00 | 0.00 | 0.00 | 59 | 1016.8 |
| 20260503052036 | 8 | 95 | 1.6 | 11.3 | 0.00 | 0.00 | 0.00 | 60 | 1016.8 |
| 20260503051534 | 8 | 95 | 1.6 | 11.3 | 0.00 | 0.00 | 0.00 | 61 | 1016.6 |
| 20260503051033 | 8 | 95 | 1.6 | 9.7 | 0.00 | 0.00 | 0.00 | 62 | 1016.6 |
| 20260503050533 | 8 | 95 | 0.0 | 4.8 | 0.00 | 0.00 | 0.00 | 64 | 1016.5 |
| 20260503050031 | 8 | 95 | 0.0 | 4.8 | 0.00 | 0.00 | 0.00 | 64 | 1016.6 |
| 20260503045531 | 8 | 95 | 0.0 | 4.8 | 0.00 | 0.00 | 0.00 | 63 | 1016.5 |
| 20260503045031 | 8 | 96 | 0.0 | 1.6 | 0.00 | 0.00 | 0.00 | 62 | 1016.5 |
| 20260503044529 | 8 | 96 | 0.0 | 1.6 | 0.00 | 0.00 | 0.00 | 62 | 1016.6 |
| 20260503044028 | 8 | 95 | 0.0 | 1.6 | 0.00 | 0.00 | 0.00 | 62 | 1016.5 |
| 20260503043531 | 8 | 95 | 0.0 | 1.6 | 0.00 | 0.00 | 0.00 | 61 | 1016.5 |
| 20260503043027 | 9 | 96 | 0.0 | 3.2 | 0.00 | 0.00 | 0.00 | 60 | 1016.4 |
| 20260503042525 | 9 | 95 | 1.6 | 3.2 | 0.00 | 0.00 | 0.00 | 59 | 1016.4 |
| 20260503042027 | 10 | 96 | 0.0 | 6.4 | 0.00 | 0.00 | 0.00 | 57 | 1016.3 |
| 20260503041525 | 10 | 95 | 1.6 | 6.4 | 0.00 | 0.00 | 0.00 | 57 | 1016.2 |
| 20260503041024 | 10 | 96 | 0.0 | 12.9 | 0.00 | 0.00 | 0.00 | 57 | 1016.3 |
| 20260503040524 | 10 | 95 | 3.2 | 16.1 | 0.00 | 0.00 | 0.00 | 56 | 1016.1 |
| 20260503040024 | 10 | 95 | 6.4 | 14.5 | 0.00 | 0.00 | 0.00 | 56 | 1016.1 |
| 20260503035523 | 10 | 95 | 3.2 | 20.9 | 0.00 | 0.00 | 0.00 | 56 | 1016.1 |
| 20260503035022 | 10 | 95 | 3.2 | 17.7 | 0.00 | 0.00 | 0.00 | 58 | 1016.0 |
| 20260503034522 | 10 | 95 | 1.6 | 11.3 | 0.00 | 0.00 | 0.00 | 58 | 1016.0 |
| 20260503034025 | 10 | 95 | 0.0 | 11.3 | 0.00 | 0.00 | 0.00 | 58 | 1015.8 |
| 20260503033521 | 10 | 95 | 0.0 | 11.3 | 0.00 | 0.00 | 0.00 | 59 | 1015.8 |
| 20260503033027 | 9 | 95 | 0.0 | 1.6 | 0.00 | 0.00 | 0.00 | 62 | 1015.9 |
| 20260503032520 | 9 | 95 | 0.0 | 3.2 | 0.00 | 0.00 | 0.00 | 61 | 1015.8 |
| 20260503032020 | 9 | 96 | 0.0 | 3.2 | 0.00 | 0.00 | 0.00 | 61 | 1015.7 |
| 20260503031520 | 9 | 95 | 0.0 | 3.2 | 0.00 | 0.00 | 0.00 | 61 | 1015.8 |
| 20260503031050 | 9 | 95 | 0.0 | 3.2 | 0.00 | 0.00 | 0.00 | 61 | 1015.7 |
| 20260503030522 | 9 | 95 | 0.0 | 3.2 | 0.00 | 0.00 | 0.00 | 62 | 1015.7 |
| 20260503030018 | 10 | 96 | 0.0 | 4.8 | 0.00 | 0.00 | 0.00 | 62 | 1015.7 |
| 20260503025516 | 10 | 96 | 1.6 | 4.8 | 0.00 | 0.00 | 0.00 | 61 | 1015.7 |
| 20260503025016 | 10 | 96 | 0.0 | 3.2 | 0.00 | 0.00 | 0.00 | 59 | 1015.7 |
| 20260503024518 | 10 | 96 | 0.0 | 3.2 | 0.00 | 0.00 | 0.00 | 59 | 1015.7 |
| 20260503024018 | 10 | 96 | 0.0 | 0.0 | 0.00 | 0.00 | 0.00 | 58 | 1015.6 |
| 20260503023517 | 10 | 95 | 0.0 | 0.0 | 0.00 | 0.00 | 0.00 | 58 | 1015.5 |
| 20260503023016 | 10 | 96 | 0.0 | 3.2 | 0.00 | 0.00 | 0.00 | 57 | 1015.5 |
| 20260503022515 | 10 | 95 | 0.0 | 3.2 | 0.00 | 0.00 | 0.00 | 56 | 1015.4 |
| 20260503022014 | 11 | 96 | 0.0 | 6.4 | 0.00 | 0.00 | 0.00 | 56 | 1015.4 |
| 20260503021516 | 11 | 95 | 1.6 | 6.4 | 0.00 | 0.00 | 0.00 | 55 | 1015.3 |
| 20260503021013 | 11 | 95 | 0.0 | 1.6 | 0.00 | 0.00 | 0.00 | 55 | 1015.3 |
| 20260503020513 | 11 | 95 | 0.0 | 1.6 | 0.00 | 0.00 | 0.00 | 55 | 1015.3 |
| 20260503020012 | 11 | 95 | 0.0 | 3.2 | 0.00 | 0.00 | 0.00 | 54 | 1015.3 |
| 20260503015510 | 11 | 95 | 0.0 | 4.8 | 0.00 | 0.00 | 0.00 | 54 | 1015.3 |
| 20260503015010 | 11 | 96 | 1.6 | 6.4 | 0.00 | 0.00 | 0.00 | 51 | 1015.1 |
| 20260503014507 | 11 | 96 | 1.6 | 6.4 | 0.00 | 0.00 | 0.00 | 51 | 1015.2 |
| 20260503014006 | 11 | 96 | 0.0 | 3.2 | 0.00 | 0.00 | 0.00 | 51 | 1015.1 |
| 20260503013506 | 11 | 96 | 0.0 | 6.4 | 0.00 | 0.00 | 0.00 | 51 | 1015.0 |
| 20260503013006 | 12 | 95 | 3.2 | 6.4 | 0.00 | 0.00 | 0.00 | 50 | 1014.9 |
| 20260503012505 | 12 | 96 | 0.0 | 4.8 | 0.00 | 0.00 | 0.00 | 49 | 1014.8 |
| 20260503012005 | 12 | 96 | 0.0 | 9.7 | 0.00 | 0.00 | 0.00 | 49 | 1014.8 |
| 20260503011504 | 12 | 95 | 3.2 | 9.7 | 0.00 | 0.00 | 0.00 | 49 | 1014.8 |
| 20260503011004 | 12 | 95 | 3.2 | 6.4 | 0.00 | 0.00 | 0.00 | 49 | 1014.7 |
| 20260503010503 | 12 | 95 | 0.0 | 4.8 | 0.00 | 0.00 | 0.00 | 49 | 1014.5 |
| 20260503010004 | 12 | 96 | 1.6 | 9.7 | 0.00 | 0.00 | 0.00 | 48 | 1014.4 |
| 20260503005502 | 12 | 95 | 0.0 | 9.7 | 0.00 | 0.00 | 0.00 | 48 | 1014.3 |
| 20260503005005 | 12 | 95 | 1.6 | 9.7 | 0.00 | 0.00 | 0.00 | 48 | 1014.2 |
| 20260503004504 | 12 | 95 | 1.6 | 9.7 | 0.00 | 0.00 | 0.00 | 48 | 1014.2 |
| 20260503004003 | 12 | 95 | 1.6 | 9.7 | 0.00 | 0.00 | 0.00 | 47 | 1014.1 |
| 20260503003504 | 12 | 96 | 3.2 | 9.7 | 0.00 | 0.00 | 0.00 | 47 | 1014.0 |
| 20260503003005 | 12 | 95 | 1.6 | 9.7 | 0.00 | 0.00 | 0.00 | 47 | 1014.0 |
| 20260503002503 | 13 | 95 | 0.0 | 4.8 | 0.00 | 0.00 | 0.00 | 46 | 1014.0 |
| 20260503002003 | 13 | 96 | 1.6 | 11.3 | 0.00 | 0.00 | 0.00 | 46 | 1013.9 |
| 20260503001502 | 13 | 95 | 0.0 | 11.3 | 0.00 | 0.00 | 0.00 | 46 | 1013.7 |
| 20260503001003 | 13 | 95 | 0.0 | 11.3 | 0.00 | 0.00 | 0.00 | 45 | 1013.6 |
| 20260503000504 | 13 | 96 | 3.2 | 14.5 | 0.00 | 0.00 | 0.00 | 45 | 1013.5 |
| 20260503000002 | 13 | 95 | 6.4 | 17.7 | 0.00 | 0.00 | 0.00 | 44 | 1013.4 |
| 20260502235502 | 13 | 96 | 6.4 | 27.4 | 0.00 | 0.00 | 0.00 | 44 | 1013.4 |
| 20260502235002 | 14 | 96 | 16.1 | 29.0 | 0.00 | 0.00 | 0.00 | 43 | 1013.2 |
| 20260502234058 | 14 | 96 | 12.9 | 40.2 | 0.00 | 0.00 | 0.00 | 43 | 1013.1 |
| 20260502233559 | 15 | 96 | 12.9 | 40.2 | 0.00 | 0.00 | 0.00 | 42 | 1013.0 |
| 20260502233100 | 15 | 96 | 8.0 | 25.7 | 0.00 | 0.00 | 0.00 | 41 | 1013.0 |
| 20260502232559 | 15 | 96 | 9.7 | 29.0 | 0.00 | 0.00 | 0.00 | 40 | 1012.7 |
| 20260502232057 | 15 | 96 | 9.7 | 29.0 | 0.00 | 0.00 | 0.00 | 40 | 1012.8 |
| 20260502231602 | 15 | 96 | 17.7 | 29.0 | 0.00 | 0.00 | 0.00 | 40 | 1012.8 |
| 20260502231058 | 15 | 96 | 12.9 | 29.0 | 0.00 | 0.00 | 0.00 | 40 | 1012.6 |
| 20260502230557 | 15 | 95 | 9.7 | 29.0 | 0.00 | 0.00 | 0.00 | 41 | 1012.5 |
| 20260502230057 | 15 | 95 | 8.0 | 25.7 | 0.00 | 0.00 | 0.00 | 41 | 1012.5 |
| 20260502225556 | 15 | 95 | 16.1 | 25.7 | 0.00 | 0.00 | 0.00 | 40 | 1012.4 |
| 20260502225058 | 15 | 96 | 14.5 | 32.2 | 0.00 | 0.00 | 0.00 | 39 | 1012.6 |
| 20260502224057 | 15 | 95 | 14.5 | 35.4 | 0.00 | 0.00 | 0.00 | 37 | 1012.5 |
| 20260502223557 | 15 | 95 | 16.1 | 35.4 | 0.00 | 0.00 | 0.00 | 38 | 1012.3 |
| 20260502223057 | 15 | 95 | 17.7 | 40.2 | 0.00 | 0.00 | 0.00 | 38 | 1012.3 |
| 20260502222600 | 16 | 96 | 17.7 | 35.4 | 0.00 | 0.00 | 0.00 | 38 | 1012.2 |
| 20260502222058 | 16 | 95 | 17.7 | 41.8 | 0.00 | 0.00 | 0.00 | 39 | 1012.0 |
| 20260502221556 | 16 | 96 | 22.5 | 43.5 | 0.00 | 0.00 | 0.00 | 39 | 1011.9 |
| 20260502221100 | 16 | 96 | 17.7 | 43.5 | 0.00 | 0.00 | 0.00 | 38 | 1011.8 |
| 20260502220558 | 16 | 95 | 11.3 | 29.0 | 0.00 | 0.00 | 0.00 | 38 | 1011.7 |
| 20260502220057 | 16 | 95 | 14.5 | 35.4 | 0.00 | 0.00 | 0.00 | 38 | 1011.7 |
| 20260502215556 | 16 | 96 | 4.8 | 35.4 | 0.00 | 0.00 | 0.00 | 38 | 1011.7 |
| 20260502215057 | 16 | 95 | 19.3 | 35.4 | 0.00 | 0.00 | 0.00 | 37 | 1011.5 |
| 20260502214055 | 17 | 96 | 11.3 | 32.2 | 0.00 | 0.00 | 0.00 | 37 | 1011.3 |
| 20260502213555 | 17 | 96 | 14.5 | 33.8 | 0.00 | 0.00 | 0.00 | 37 | 1011.3 |
| 20260502213056 | 17 | 96 | 16.1 | 33.8 | 0.00 | 0.00 | 0.00 | 37 | 1011.1 |
| 20260502212556 | 16 | 96 | 6.4 | 56.3 | 0.00 | 0.00 | 0.00 | 37 | 1011.1 |
| 20260502212056 | 16 | 96 | 14.5 | 56.3 | 0.00 | 0.00 | 0.00 | 37 | 1011.1 |
| 20260502211554 | 16 | 96 | 9.7 | 27.4 | 0.00 | 0.00 | 0.00 | 37 | 1011.1 |
| 20260502211057 | 16 | 96 | 11.3 | 32.2 | 0.00 | 0.00 | 0.00 | 37 | 1011.1 |
| 20260502210554 | 16 | 96 | 12.9 | 32.2 | 0.00 | 0.00 | 0.00 | 36 | 1011.0 |
| 20260502210111 | 17 | 96 | 17.7 | 32.2 | 0.00 | 0.00 | 0.00 | 35 | 1011.1 |
| 20260502205553 | 17 | 96 | 12.9 | 32.2 | 0.00 | 0.00 | 0.00 | 36 | 1011.0 |
| 20260502205054 | 17 | 96 | 12.9 | 33.8 | 0.00 | 0.00 | 0.00 | 36 | 1011.1 |
| 20260502204053 | 17 | 96 | 6.4 | 27.4 | 0.00 | 0.00 | 0.00 | 35 | 1011.0 |
| 20260502203555 | 16 | 96 | 9.7 | 33.8 | 0.00 | 0.00 | 0.00 | 36 | 1011.0 |
| 20260502203055 | 16 | 96 | 9.7 | 33.8 | 0.00 | 0.00 | 0.00 | 36 | 1011.2 |
| 20260502202552 | 16 | 96 | 19.3 | 32.2 | 0.00 | 0.00 | 0.00 | 35 | 1011.3 |
| 20260502202052 | 16 | 96 | 16.1 | 37.0 | 0.00 | 0.00 | 0.00 | 35 | 1011.1 |
| 20260502201607 | 16 | 96 | 14.5 | 37.0 | 0.00 | 0.00 | 0.00 | 36 | 1011.2 |
| 20260502201052 | 17 | 96 | 9.7 | 30.6 | 0.00 | 0.00 | 0.00 | 35 | 1011.1 |
| 20260502200551 | 17 | 96 | 12.9 | 27.4 | 0.00 | 0.00 | 0.00 | 35 | 1011.1 |
| 20260502200050 | 17 | 96 | 8.0 | 29.0 | 0.00 | 0.00 | 0.00 | 35 | 1011.2 |
| 20260502195649 | 17 | 96 | 16.1 | 29.0 | 0.00 | 0.00 | 0.00 | 36 | 1011.1 |
| 20260502195048 | 17 | 96 | 14.5 | 29.0 | 0.00 | 0.00 | 0.00 | 35 | 1011.2 |
| 20260502194054 | 16 | 96 | 6.4 | 29.0 | 0.00 | 0.00 | 0.00 | 36 | 1011.4 |
| 20260502193553 | 17 | 96 | 11.3 | 29.0 | 0.00 | 0.00 | 0.00 | 35 | 1011.6 |
| 20260502193052 | 16 | 96 | 16.1 | 29.0 | 0.00 | 0.00 | 0.00 | 37 | 1011.6 |
| 20260502192554 | 17 | 96 | 12.9 | 25.7 | 0.00 | 0.00 | 0.00 | 36 | 1011.5 |
| 20260502192052 | 17 | 96 | 3.2 | 24.1 | 0.00 | 0.00 | 0.00 | 36 | 1011.6 |
| 20260502191651 | 17 | 96 | 6.4 | 24.1 | 0.00 | 0.00 | 0.00 | 36 | 1011.6 |
| 20260502191051 | 16 | 96 | 11.3 | 29.0 | 0.00 | 0.00 | 0.00 | 36 | 1011.7 |
| 20260502190551 | 16 | 96 | 9.7 | 33.8 | 0.00 | 0.00 | 0.00 | 37 | 1011.7 |